GLOBALSTAR M001 1 25162U 98008A 10076.07713101 -.00000084 00000-0 10000-3 0 5145 2 25162 52.0057 344.7821 0001225 58.5913 301.5041 12.37993994553741 GLOBALSTAR M004 1 25163U 98008B 10077.13991359 -.00000086 00000-0 10000-3 0 5666 2 25163 51.9988 123.2140 0003795 178.0677 182.0204 12.63159618557806 GLOBALSTAR M002 1 25164U 98008C 10077.22240940 -.00000071 00000-0 10000-3 0 4562 2 25164 51.9999 164.7932 0001549 114.7827 245.3155 11.61426370536924 GLOBALSTAR M003 1 25165U 98008D 10077.11390073 -.00000086 00000-0 10000-3 0 5819 2 25165 51.9947 129.9836 0000561 182.4112 177.6710 12.62263463557646 GLOBALSTAR M014 1 25306U 98023A 10075.90995003 -.00000083 00000-0 10000-3 0 4469 2 25306 51.9895 233.4164 0002357 102.4299 257.6816 12.29156250541123 GLOBALSTAR M006 1 25307U 98023B 10075.78057266 -.00000086 00000-0 10000-3 0 2782 2 25307 51.9967 180.2655 0002396 145.4120 214.6896 12.62262893548644 GLOBALSTAR M015 1 25308U 98023C 10076.78804125 -.00000086 00000-0 10000-3 0 2889 2 25308 51.9944 176.5929 0001886 160.5706 199.5230 12.62267042548771 GLOBALSTAR M008 1 25309U 98023D 10077.23695032 -.00000085 00000-0 10000-3 0 2649 2 25309 51.9932 179.4377 0002054 184.2376 175.8470 12.57124524548765 GLOBALSTAR M023 1 25621U 99004A 10076.39465596 -.00000086 00000-0 10000-3 0 2575 2 25621 52.0102 91.8644 0009559 61.7746 298.4076 12.62225855512258 GLOBALSTAR M040 1 25622U 99004B 10076.02035174 -.00000086 00000-0 10000-3 0 1604 2 25622 51.9910 88.9100 0000178 250.6269 109.4574 12.61703185512211 GLOBALSTAR M036 1 25623U 99004C 10076.42673066 -.00000086 00000-0 10000-3 0 2035 2 25623 51.9986 88.9406 0001073 210.2234 149.8561 12.62268332512296 GLOBALSTAR M038 1 25624U 99004D 10076.17429407 -.00000086 00000-0 10000-3 0 2036 2 25624 52.0015 45.6732 0000689 169.0805 191.0071 12.62273913513007 GLOBALSTAR M022 1 25649U 99012A 10077.10475451 -.00000084 00000-0 10000-3 0 1651 2 25649 52.0121 327.9895 0001473 110.6610 249.4403 12.38629920506067 GLOBALSTAR M041 1 25650U 99012B 10076.89706195 -.00000086 00000-0 10000-3 0 2125 2 25650 52.0058 224.1279 0002823 130.0752 230.0363 12.62255928507911 GLOBALSTAR M046 1 25651U 99012C 10076.87922749 -.00000086 00000-0 10000-3 0 2163 2 25651 52.0020 222.3763 0000892 120.4478 239.6476 12.62269783507892 GLOBALSTAR M037 1 25652U 99012D 10076.89941414 -.00000086 00000-0 10000-3 0 1884 2 25652 52.0012 223.4406 0002567 128.2855 231.8244 12.62270098507861 GLOBALSTAR M045 1 25676U 99019A 10076.77853523 -.00000086 00000-0 10000-3 0 3148 2 25676 51.9931 221.6965 0002714 130.9977 229.1118 12.62257302505449 GLOBALSTAR M019 1 25677U 99019B 10077.02818839 -.00000086 00000-0 10000-3 0 2148 2 25677 51.9935 265.6980 0002574 104.2967 255.8191 12.62269611505427 GLOBALSTAR M044 1 25678U 99019C 10076.01271218 -.00000084 00000-0 10000-3 0 2071 2 25678 51.9987 248.1843 0000473 42.2166 317.8727 12.39447584504296 GLOBALSTAR M042 1 25679U 99019D 10076.66463033 -.00000086 00000-0 10000-3 0 3018 2 25679 52.0054 313.7046 0000654 115.9169 244.1761 12.62271478503944 GLOBALSTAR M025 1 25770U 99031A 10076.77300591 -.00000086 00000-0 10000-3 0 1552 2 25770 51.9962 267.1096 0001008 92.5817 267.5163 12.62255598496719 GLOBALSTAR M049 1 25771U 99031B 10077.00285785 -.00000084 00000-0 10000-3 0 3580 2 25771 51.9953 273.8514 0003451 66.5529 293.5696 12.40169551496601 GLOBALSTAR M047 1 25772U 99031C 10076.02050722 -.00000086 00000-0 10000-3 0 2304 2 25772 51.9952 268.9809 0000859 100.3319 259.7647 12.62256801496627 GLOBALSTAR M052 1 25773U 99031D 10075.92185504 -.00000086 00000-0 10000-3 0 9497 2 25773 51.9916 268.0474 0002414 106.9662 253.1460 12.62256454496613 GLOBALSTAR M035 1 25851U 99037A 10075.93456565 -.00000061 00000-0 10000-3 0 8503 2 25851 51.9933 238.6741 0012327 317.0996 42.8835 11.04481540480677 GLOBALSTAR M032 1 25852U 99037B 10076.68653824 -.00000086 00000-0 10000-3 0 1324 2 25852 52.0039 312.7697 0001923 81.6612 278.4469 12.62267545492945 GLOBALSTAR M051 1 25853U 99037C 10076.78558597 -.00000086 00000-0 10000-3 0 1451 2 25853 52.0023 312.3640 0001872 112.2010 247.9052 12.62268933492951 GLOBALSTAR M030 1 25854U 99037D 10076.48861664 -.00000086 00000-0 10000-3 0 1439 2 25854 52.0035 313.5694 0001102 74.6650 285.4336 12.62262945492919 GLOBALSTAR M048 1 25872U 99041A 10076.24347421 -.00000086 00000-0 10000-3 0 1854 2 25872 52.0080 0.4693 0000682 118.3511 241.7423 12.62272587490614 GLOBALSTAR M026 1 25873U 99041B 10076.73863529 -.00000086 00000-0 10000-3 0 1626 2 25873 52.0085 359.1096 0001573 68.0586 292.0446 12.62268255491065 GLOBALSTAR M043 1 25874U 99041C 10077.09285328 -.00000086 00000-0 10000-3 0 1712 2 25874 52.0079 357.9582 0001082 87.6177 272.4893 12.62259019491104 GLOBALSTAR M028 1 25875U 99041D 10076.99584681 -.00000086 00000-0 10000-3 0 1467 2 25875 52.0069 357.9568 0001012 106.7778 253.3190 12.62270007491097 GLOBALSTAR M024 1 25883U 99043A 10077.08533930 -.00000086 00000-0 10000-3 0 1594 2 25883 52.0066 43.8033 0000937 150.2970 209.7936 12.62270166488224 GLOBALSTAR M027 1 25884U 99043B 10076.35475546 -.00000086 00000-0 10000-3 0 1389 2 25884 52.0080 45.9429 0000899 81.2886 278.8082 12.62268891488130 GLOBALSTAR M054 1 25885U 99043C 10076.09595152 -.00000081 00000-0 10000-3 0 1034 2 25885 52.0116 299.5485 0000863 83.9069 276.1878 12.20515554483542 GLOBALSTAR M053 1 25886U 99043D 10076.15718397 -.00000086 00000-0 10000-3 0 1585 2 25886 52.0088 46.5576 0000844 353.7820 6.3026 12.62268840488119 GLOBALSTAR M058 1 25907U 99049A 10077.10461429 -.00000086 00000-0 10000-3 0 1548 2 25907 51.9967 41.1016 0001036 114.3839 245.7122 12.62270256484488 GLOBALSTAR M050 1 25908U 99049B 10076.09202131 -.00000079 00000-0 10000-3 0 1125 2 25908 51.9996 287.1277 0009390 89.3634 270.8285 12.07311570479978 GLOBALSTAR M033 1 25909U 99049C 10076.37456592 -.00000086 00000-0 10000-3 0 1431 2 25909 51.9984 43.4971 0001089 71.8350 288.2625 12.62272069484379 GLOBALSTAR M055 1 25910U 99049D 10076.54279373 -.00000084 00000-0 10000-3 0 1575 2 25910 52.0021 107.8745 0001554 97.8570 262.2455 12.38119496483298 GLOBALSTAR M057 1 25943U 99058A 10076.45160522 -.00000086 00000-0 10000-3 0 4683 2 25943 52.0000 178.4771 0001935 127.7647 232.3389 12.62257059480347 GLOBALSTAR M059 1 25944U 99058B 10077.22356149 -.00000086 00000-0 10000-3 0 1274 2 25944 52.0034 176.7245 0001449 108.9256 251.1770 12.62266682480467 GLOBALSTAR M056 1 25945U 99058C 10077.11198135 -.00000086 00000-0 10000-3 0 4679 2 25945 51.9967 130.8410 0000939 190.5576 169.5272 12.62274022481187 GLOBALSTAR M031 1 25946U 99058D 10077.09203671 -.00000086 00000-0 10000-3 0 1508 2 25946 51.9971 131.2527 0003539 121.9566 238.1645 12.62256208481209 GLOBALSTAR M039 1 25961U 99062A 10076.78312960 -.00000086 00000-0 10000-3 0 4296 2 25961 51.9963 311.2361 0000958 144.7299 215.3628 12.62260293476785 GLOBALSTAR M034 1 25962U 99062B 10076.26078922 -.00000086 00000-0 10000-3 0 732 2 25962 51.9993 359.0693 0000755 126.8147 233.2545 12.62277390475934 GLOBALSTAR M029 1 25963U 99062C 10076.38717679 -.00000086 00000-0 10000-3 0 4470 2 25963 51.9924 87.5429 0001577 146.9709 213.1240 12.62269059486449 GLOBALSTAR M061 1 25964U 99062D 10076.82098109 -.00000074 00000-0 10000-3 0 1148 2 25964 51.9774 199.9304 0004601 287.9953 72.0372 11.76686453465700 GLOBALSTAR M063 1 26081U 00008A 10077.13176418 -.00000086 00000-0 10000-3 0 2061 2 26081 52.0003 131.2107 0000310 207.1492 152.9288 12.62262790474572 GLOBALSTAR M062 1 26082U 00008B 10077.01857606 -.00000085 00000-0 10000-3 0 1051 2 26082 52.0058 277.1807 0003454 138.2438 221.8691 12.49987399466104 GLOBALSTAR M060 1 26083U 00008C 10076.74294781 -.00000086 00000-0 10000-3 0 2052 2 26083 52.0039 179.3033 0001430 135.5087 224.5888 12.62270336473736 GLOBALSTAR M064 1 26084U 00008D 10076.35979324 -.00000086 00000-0 10000-3 0 4167 2 26084 52.0054 135.0063 0001669 145.4837 214.6131 12.62265080492432 GLOBALSTAR M065 1 31571U 07020A 10076.11976510 -.00000081 00000-0 12768-3 0 8693 2 31571 51.9907 269.2258 0002568 105.7111 254.4049 12.62266710130185 GLOBALSTAR M069 1 31573U 07020C 10075.90941520 -.00000086 00000-0 10000-3 0 4423 2 31573 51.9923 225.0068 0002914 125.8076 234.3061 12.62270873130896 GLOBALSTAR M072 1 31574U 07020D 10076.19147916 -.00000081 00000-0 12648-3 0 8657 2 31574 52.0121 315.2401 0001814 101.9685 258.1374 12.62258719129435 GLOBALSTAR M071 1 31576U 07020F 10075.88966095 -.00000086 00000-0 10000-3 0 4630 2 31576 52.0051 225.8077 0002604 126.1003 234.0088 12.62264913130884 GLOBALSTAR M067 1 32263U 07048A 10076.12980662 -.00000104 00000-0 00000+0 0 8177 2 32263 51.9739 88.3050 0000837 202.5247 157.5585 12.62261496112601 GLOBALSTAR M070 1 32264U 07048B 10076.25333634 -.00000086 00000-0 10000-3 0 7682 2 32264 51.9759 178.4001 0002328 154.5572 205.5409 12.62267757111104 GLOBALSTAR M066 1 32265U 07048C 10076.41440673 -.00000104 00000-0 00000+0 0 8253 2 32265 51.9682 42.4076 0000851 16.4900 343.5997 12.62267089113354 GLOBALSTAR M068 1 32266U 07048D 10077.09481812 -.00000086 00000-0 10000-3 0 8309 2 32266 51.9868 356.4093 0000957 77.4646 282.6310 12.62267389114209